L. Denneau, R. Siverd, J. Tonry, H. Weiland, J. Licandro, M. Alarcon.
Measurers L. Denneau, N. Erasmus, A. Fitzsimmons, J. Robinson, R. Siverd,
J. Tonry, H. Weiland, J. Licandro, M. Alarcon. 0.56-m f/2.2 Astrograph +
CMOS.
(T05) ATLAS-HKO, Haleakala (N20.707551 W156.257010) US/Hawaii. Observers
L. Denneau, R. Siverd, J. Tonry, H. Weiland. Measurers L. Denneau, N.
Erasmus, A. Fitzsimmons, J. Robinson, R. Siverd, J. Tonry, H. Weiland.
0.5-m f/2.0 Schmidt + CCD.
(T08) ATLAS-MLO, Mauna Loa (N19.536150 W155.576050) US/Hawaii. Observers
L. Denneau, R. Siverd, J. Tonry, H. Weiland. Measurers L. Denneau, N.
Erasmus, A. Fitzsimmons, J. Robinson, R. Siverd, J. Tonry, H. Weiland.
0.5-m f/2.0 Schmidt + CCD.
(Z43) Landehen (N48.434102 W2.537840) France. Observer C. Ratinaud. 0.25-m
f/4.7 Reflector + CCD.
(Z80) Northolt Branch Observatory (N51.554659 W0.371920) UK/England.
Observer G. Wells. Measurer D. Bamberger. 0.25-m f/8 Ritchey-Chrétien +
CCD.
Orbital elements: A11FyZe
Perigee 2026 Aug 12.034859 +/- 3.82e-6 TT = 0:50:11.8 (JD 2461264.534859)
Epoch 2026 Aug 12.0 TT = JDT 2461264.5 AutoNEOCP
q 20467.89521 +/- 1.25 (J2000 equator)
H 27.95 G 0.15 Peri. 237.416763 +/- 0.0008
Node 170.036754 +/- 0.00023
e 9.13235406 +/- 0.00117 Incl. 92.636035 +/- 0.00030
From 103 observations 2026 Aug. 11 (22.3 hr); mean residual 0".66
Residuals in arcseconds: 260811 R17 .01+ .13- 260811 C82 .23+ 3.3- 260811 G33 .14- .77- 260811 R17 .15- .01- 260811 G34 .21+ .05+ 260811 G33 .03+ .62- 260811 R17 .04- .07+ 260811 G34 .10+ .15- 260811 I93 .05- .27- 260811 R17 .13- .17- 260811 151 .24+ 1.0- 260811 I93 .10- .16- 260811 T08 .14+ .12- 260811 151 .19+ .15+ 260811 I93 .10- .44- 260811 T05 .47- .03- 260811 151 .28+ 1.7- 260811 I93 .07- .60- 260811 T08 .49+ .24- 260811 G34 .04+ .20+ 260811 I93 .14- .99- 260811 T05 .04+ .00 260811 151 .06+ 1.2- 260811 C40 .11- .93+ 260811 T08 .66- .21+ 260811 151 .47+ 2.6- 260811 C40 .03- .67+ 260811 T08 .10+ .22+ 260811 151 .14+ .01- 260811 C40 .41- 1.2- 260811 T05 .02+ .06+ 260811 151 .16+ 1.2- 260811 C40 .10- .48+ 260811 T05 .22+ .08- 260811 151 .08- .92- 260811 C40 .02+ 1.1+ 260811 P87 .01+ .48+ 260811 G34 .03+ .32+ 260811 C40 .40- 1.2- 260811 P87 .30+ .55+ 260811 L76 .10+ 2.5+ 260811 L65 .21- .11- 260811 P87 .17+ .09+ 260811 L76 .06+ 1.4+ 260811 L65 .24- .29- 260811 P87 .17- .14+ 260811 J95 .09+ .13- 260811 L65 .00 .05+ 260811 P87 .23+ .42- 260811 J95 .02+ .32+ 260811 L65 .02- .16- 260811 L04 .09- .58- 260811 L76 .03+ 1.8+ 260811 Z43 .30- .70- 260811 L04 .08- .28- 260811 J95 .07+ .03+ 260811 Z43 .27+ .51- 260811 L04 .09+ .21- 260811 J95 .08- .39+ 260811 Z43 .01- .97- 260811 L04 .05+ .01- 260811 L76 .15+ 2.5+ 260811 B42 .28+ 1.3- 260811 M75 .40- .07- 260811 G34 .25+ .06+ 260811 B42 .06- 1.0- 260811 M75 .07- .79- 260811 G34 .01- .03+ 260811 B42 .17+ 1.2- 260811 M75 .43- .64- 260811 G34 .21- .19- 260811 L65 .24+ 1.3- 260811 L01 .21- .61+ 260811 K74 .12- .00 260811 L65 .28+ .95- 260811 L01 .00 .57+ 260811 K74 .11- .10+ 260811 L65 .39- 1.5- 260811 L01 .09+ .49+ 260811 K74 .01- .01- 260811 Z80 .29+ .18- 260811 L01 .22- .43+ 260811 L34 .08- .41- 260811 Z80 .04+ 1.7- 260811 G34 .51+ .18- 260811 B42 .22+ .40- 260811 G17 .39- .22+ 260811 G34 .05- .61- 260811 B42 .30+ .22- 260811 G17 .11- .18- 260811 G34 .22+ .11- 260811 B42 .35+ .24- 260811 G17 .68- .13+ 260811 G33 .08+ .11- 260811 B42 .44+ .21- 260811 Z80 .29+ .46- 260811 G33 .19+ .19- 260811 B42 .51+ .49- 260811 Z80 .37+ 2.2- 260811 G33 .23+ .20- 260811 L34 .15- .60- 260811 C82 .22+ 2.9- 260811 G33 .22+ .54- Ephemerides (geocentric): Date (UTC) HH RA Dec delta r elong mag " sig PA ---- -------- ------------ ------------ ------ ------ ----- --- -------- 2026 08 12 17 11 25 46.757 -28 01 34.11 741457 1.0102 51.5 22?? 5.54 175 2026 08 12 18 11 25 45.293 -27 55 28.24 786885 1.0100 51.4 22?? 5.54 175 2026 08 12 19 11 25 43.987 -27 50 02.26 832307 1.0098 51.3 22?? 5.54 175 2026 08 12 20 11 25 42.816 -27 45 09.95 877723 1.0096 51.2 22?? 5.55 175 2026 08 12 21 11 25 41.757 -27 40 46.35 923133 1.0094 51.1 22?? 5.55 175 2026 08 12 22 11 25 40.796 -27 36 47.41 968538 1.0092 51.0 22?? 5.55 175 2026 08 12 23 11 25 39.918 -27 33 09.81 .00678 1.0090 50.9 22?? 5.55 175 2026 08 13 00 11 25 39.112 -27 29 50.80 .00708 1.0088 50.9 22?? 5.56 175 2026 08 13 01 11 25 38.369 -27 26 48.08 .00738 1.0086 50.8 22?? 5.56 175 2026 08 13 02 11 25 37.682 -27 23 59.71 .00769 1.0084 50.7 23?? 5.56 175 2026 08 13 03 11 25 37.042 -27 21 24.06 .00799 1.0082 50.7 23?? 5.56 175 2026 08 13 04 11 25 36.446 -27 18 59.73 .00829 1.0080 50.6 23?? 5.56 175 2026 08 13 05 11 25 35.887 -27 16 45.51 .00860 1.0078 50.5 23?? 5.56 175 2026 08 13 06 11 25 35.363 -27 14 40.36 .00890 1.0076 50.5 23?? 5.57 175 2026 08 13 07 11 25 34.868 -27 12 43.39 .00920 1.0074 50.4 23?? 5.57 175 2026 08 13 08 11 25 34.400 -27 10 53.80 .00951 1.0071 50.4 23?? 5.57 175 2026 08 13 09 11 25 33.957 -27 09 10.91 .00981 1.0069 50.3 23?? 5.57 175 2026 08 13 10 11 25 33.535 -27 07 34.11 .01011 1.0067 50.2 23?? 5.57 175 2026 08 13 11 11 25 33.133 -27 06 02.86 .01042 1.0065 50.2 23?? 5.57 175 2026 08 13 12 11 25 32.749 -27 04 36.69 .01072 1.0063 50.1 23?? 5.57 175 2026 08 13 13 11 25 32.380 -27 03 15.18 .01102 1.0061 50.1 23?? 5.57 175 2026 08 13 14 11 25 32.027 -27 01 57.95 .01133 1.0059 50.0 23?? 5.57 175 2026 08 13 15 11 25 31.686 -27 00 44.66 .01163 1.0057 50.0 24?? 5.57 175 2026 08 13 16 11 25 31.357 -26 59 35.01 .01193 1.0055 49.9 24?? 5.57 175 2026 08 13 17 11 25 31.039 -26 58 28.72 .01224 1.0053 49.9 24?? 5.58 175 2026 08 13 18 11 25 30.731 -26 57 25.55 .01254 1.0051 49.9 24?? 5.58 175 2026 08 13 19 11 25 30.432 -26 56 25.26 .01284 1.0049 49.8 24?? 5.58 175 2026 08 13 20 11 25 30.140 -26 55 27.67 .01315 1.0047 49.8 24?? 5.58 175 2026 08 13 21 11 25 29.857 -26 54 32.58 .01345 1.0045 49.7 24?? 5.58 175 2026 08 13 22 11 25 29.580 -26 53 39.83 .01375 1.0042 49.7 24?? 5.58 175 2026 08 13 23 11 25 29.309 -26 52 49.26 .01406 1.0040 49.6 24?? 5.58 175 2026 08 14 00 11 25 29.044 -26 52 00.73 .01436 1.0038 49.6 24?? 5.58 175 2026 08 14 01 11 25 28.783 -26 51 14.11 .01466 1.0036 49.5 24?? 5.58 175 2026 08 14 02 11 25 28.528 -26 50 29.28 .01497 1.0034 49.5 24?? 5.58 175 2026 08 14 03 11 25 28.276 -26 49 46.13 .01527 1.0032 49.5 24?? 5.58 175 2026 08 14 04 11 25 28.028 -26 49 04.57 .01557 1.0030 49.4 24?? 5.58 175 2026 08 14 05 11 25 27.783 -26 48 24.50 .01587 1.0028 49.4 24?? 5.58 175 2026 08 14 06 11 25 27.542 -26 47 45.82 .01618 1.0026 49.3 24?? 5.58 175 2026 08 14 07 11 25 27.303 -26 47 08.47 .01648 1.0024 49.3 24?? 5.58 175 2026 08 14 08 11 25 27.066 -26 46 32.37 .01678 1.0021 49.3 24?? 5.58 175 2026 08 14 09 11 25 26.832 -26 45 57.45 .01709 1.0019 49.2 24?? 5.58 175 2026 08 14 10 11 25 26.600 -26 45 23.64 .01739 1.0017 49.2 24?? 5.58 175 2026 08 14 11 11 25 26.369 -26 44 50.89 .01769 1.0015 49.1 24?? 5.58 175 2026 08 14 12 11 25 26.139 -26 44 19.14 .01800 1.0013 49.1 25?? 5.58 175 2026 08 14 13 11 25 25.911 -26 43 48.34 .01830 1.0011 49.1 25?? 5.58 175 2026 08 14 14 11 25 25.684 -26 43 18.43 .01860 1.0009 49.0 25?? 5.58 175 2026 08 14 15 11 25 25.458 -26 42 49.38 .01890 1.0007 49.0 25?? 5.58 175 2026 08 14 16 11 25 25.232 -26 42 21.14 .01921 1.0004 48.9 25?? 5.58 175